Time,TemperatureF,DewpointF,PressureIn,WindDirection,WindDirectionDegrees,WindSpeedMPH,WindSpeedGustMPH,Humidity,HourlyPrecipIn,Conditions,Clouds,dailyrainin,SoftwareType,DateUTC
2013-04-15 00:01:00,34.4,30.0,30.15,East,86,2.0,9.0,84,0.00,,,0.08,weatherlink.com 1.10,2013-04-15 04:01:00,
2013-04-15 00:16:00,34.4,30.0,30.14,ESE,108,0.0,10.0,83,0.00,,,0.08,weatherlink.com 1.10,2013-04-15 04:16:00,
2013-04-15 00:32:00,34.5,30.0,30.14,East,88,2.0,7.0,83,0.00,,,0.08,weatherlink.com 1.10,2013-04-15 04:32:00,
2013-04-15 00:46:00,34.7,29.0,30.13,SE,126,2.0,8.0,81,0.00,,,0.08,weatherlink.com 1.10,2013-04-15 04:46:00,
2013-04-15 01:01:00,34.8,29.0,30.14,East,97,2.0,7.0,79,0.00,,,0.08,weatherlink.com 1.10,2013-04-15 05:01:00,
2013-04-15 01:17:00,35.0,28.0,30.13,East,90,3.0,10.0,77,0.00,,,0.08,weatherlink.com 1.10,2013-04-15 05:17:00,
2013-04-15 01:31:00,35.2,28.0,30.13,East,81,7.0,8.0,76,0.00,,,0.00,weatherlink.com 1.10,2013-04-15 05:31:00,
2013-04-15 01:47:00,35.1,28.0,30.13,ESE,108,1.0,8.0,76,0.00,,,0.00,weatherlink.com 1.10,2013-04-15 05:47:00,
2013-04-15 02:02:00,35.1,28.0,30.11,ESE,107,5.0,11.0,76,0.00,,,0.00,weatherlink.com 1.10,2013-04-15 06:02:00,
2013-04-15 02:17:00,35.2,28.0,30.10,East,90,5.0,13.0,75,0.00,,,0.00,weatherlink.com 1.10,2013-04-15 06:17:00,
2013-04-15 02:32:00,35.3,28.0,30.09,NE,42,8.0,12.0,74,0.00,,,0.00,weatherlink.com 1.10,2013-04-15 06:32:00,
2013-04-15 02:47:00,35.3,27.0,30.08,ESE,105,3.0,11.0,73,0.00,,,0.00,weatherlink.com 1.10,2013-04-15 06:47:00,
2013-04-15 03:02:00,35.4,28.0,30.08,South,178,2.0,11.0,73,0.00,,,0.00,weatherlink.com 1.10,2013-04-15 07:02:00,
2013-04-15 03:47:00,35.6,28.0,30.05,ENE,71,5.0,10.0,73,0.00,,,0.00,weatherlink.com 1.10,2013-04-15 07:47:00,
2013-04-15 04:02:00,35.7,27.0,30.04,East,95,6.0,10.0,72,0.00,,,0.00,weatherlink.com 1.10,2013-04-15 08:02:00,
2013-04-15 04:17:00,36.1,28.0,30.04,SE,132,4.0,17.0,71,0.00,,,0.00,weatherlink.com 1.10,2013-04-15 08:17:00,
2013-04-15 04:32:00,36.8,27.0,30.03,East,89,6.0,15.0,69,0.00,,,0.00,weatherlink.com 1.10,2013-04-15 08:32:00,
2013-04-15 04:47:00,37.4,28.0,30.03,ESE,115,4.0,18.0,68,0.00,,,0.00,weatherlink.com 1.10,2013-04-15 08:47:00,
2013-04-15 05:02:00,37.8,28.0,30.03,East,90,9.0,19.0,67,0.00,,,0.00,weatherlink.com 1.10,2013-04-15 09:02:00,
2013-04-15 05:17:00,37.8,28.0,30.03,East,94,7.0,16.0,68,0.00,,,0.00,weatherlink.com 1.10,2013-04-15 09:17:00,
2013-04-15 05:32:00,37.8,28.0,30.02,East,91,8.0,18.0,69,0.00,,,0.00,weatherlink.com 1.10,2013-04-15 09:32:00,
2013-04-15 05:47:00,38.0,29.0,30.02,SE,131,5.0,18.0,69,0.00,,,0.00,weatherlink.com 1.10,2013-04-15 09:47:00,
2013-04-15 06:02:00,38.3,29.0,30.02,ESE,120,8.0,22.0,68,0.00,,,0.00,weatherlink.com 1.10,2013-04-15 10:02:00,
2013-04-15 06:17:00,38.1,29.0,30.03,ESE,117,7.0,18.0,70,0.00,,,0.00,weatherlink.com 1.10,2013-04-15 10:17:00,
2013-04-15 06:32:00,37.4,29.0,30.03,ENE,71,10.0,17.0,73,0.01,,,0.01,weatherlink.com 1.10,2013-04-15 10:32:00,
2013-04-15 06:47:00,36.2,31.0,30.03,ESE,108,7.0,15.0,81,0.02,,,0.02,weatherlink.com 1.10,2013-04-15 10:47:00,
2013-04-15 07:02:00,35.2,31.0,30.02,SE,146,16.0,16.0,84,0.05,,,0.05,weatherlink.com 1.10,2013-04-15 11:02:00,
2013-04-15 07:17:00,35.0,31.0,30.02,South,175,6.0,14.0,85,0.05,,,0.05,weatherlink.com 1.10,2013-04-15 11:17:00,
2013-04-15 07:32:00,35.2,31.0,30.00,East,94,10.0,16.0,85,0.04,,,0.05,weatherlink.com 1.10,2013-04-15 11:32:00,
2013-04-15 07:47:00,35.4,31.0,29.99,East,81,2.0,19.0,85,0.02,,,0.05,weatherlink.com 1.10,2013-04-15 11:47:00,
2013-04-15 08:03:00,35.9,32.0,29.98,East,92,8.0,18.0,84,0.00,,,0.05,weatherlink.com 1.10,2013-04-15 12:03:00,
2013-04-15 08:17:00,36.6,32.0,29.99,SE,128,17.0,19.0,83,0.00,,,0.05,weatherlink.com 1.10,2013-04-15 12:17:00,
2013-04-15 08:32:00,36.7,32.0,29.98,ESE,102,11.0,18.0,83,0.00,,,0.05,weatherlink.com 1.10,2013-04-15 12:32:00,
2013-04-15 08:48:00,36.9,32.0,29.96,East,94,5.0,16.0,83,0.00,,,0.05,weatherlink.com 1.10,2013-04-15 12:48:00,
2013-04-15 09:03:00,36.7,32.0,29.96,East,96,6.0,15.0,84,0.01,,,0.06,weatherlink.com 1.10,2013-04-15 13:03:00,
2013-04-15 09:18:00,36.9,33.0,29.96,SSE,168,5.0,13.0,84,0.01,,,0.06,weatherlink.com 1.10,2013-04-15 13:18:00,
2013-04-15 09:33:00,36.8,33.0,29.95,ESE,119,3.0,16.0,85,0.02,,,0.07,weatherlink.com 1.10,2013-04-15 13:33:00,
2013-04-15 09:48:00,37.1,33.0,29.94,ESE,102,11.0,21.0,84,0.02,,,0.07,weatherlink.com 1.10,2013-04-15 13:48:00,
2013-04-15 10:03:00,37.2,33.0,29.93,East,92,8.0,16.0,85,0.01,,,0.07,weatherlink.com 1.10,2013-04-15 14:03:00,
2013-04-15 10:18:00,37.4,33.0,29.93,East,82,3.0,18.0,85,0.02,,,0.08,weatherlink.com 1.10,2013-04-15 14:18:00,
2013-04-15 10:33:00,37.6,34.0,29.93,NE,55,6.0,15.0,85,0.03,,,0.10,weatherlink.com 1.10,2013-04-15 14:33:00,
2013-04-15 10:48:00,37.1,33.0,29.91,SE,132,0.0,16.0,86,0.06,,,0.13,weatherlink.com 1.10,2013-04-15 14:48:00,
2013-04-15 11:03:00,37.4,34.0,29.91,SE,133,10.0,15.0,86,0.07,,,0.14,weatherlink.com 1.10,2013-04-15 15:03:00,
2013-04-15 11:18:00,37.5,34.0,29.91,SSE,148,3.0,18.0,86,0.06,,,0.14,weatherlink.com 1.10,2013-04-15 15:18:00,
2013-04-15 11:33:00,37.1,33.0,29.91,SE,137,2.0,23.0,86,0.08,,,0.18,weatherlink.com 1.10,2013-04-15 15:33:00,
2013-04-15 11:48:00,37.0,33.0,29.90,NE,40,3.0,17.0,86,0.06,,,0.20,weatherlink.com 1.10,2013-04-15 15:48:00,
2013-04-15 12:03:00,37.1,33.0,29.90,East,90,7.0,15.0,86,0.10,,,0.24,weatherlink.com 1.10,2013-04-15 16:03:00,
2013-04-15 12:33:00,36.8,33.0,29.91,ENE,74,8.0,14.0,86,0.21,,,0.39,weatherlink.com 1.10,2013-04-15 16:33:00,
2013-04-15 12:48:00,36.9,33.0,29.91,SE,130,1.0,12.0,86,0.25,,,0.45,weatherlink.com 1.10,2013-04-15 16:48:00,
2013-04-15 13:03:00,37.0,33.0,29.91,East,93,2.0,11.0,86,0.25,,,0.49,weatherlink.com 1.10,2013-04-15 17:03:00,
2013-04-15 13:18:00,37.0,33.0,29.92,SE,125,7.0,9.0,86,0.23,,,0.52,weatherlink.com 1.10,2013-04-15 17:18:00,
2013-04-15 13:33:00,37.2,34.0,29.92,East,94,2.0,10.0,87,0.13,,,0.52,weatherlink.com 1.10,2013-04-15 17:33:00,
2013-04-15 13:48:00,37.4,34.0,29.93,ESE,116,2.0,9.0,87,0.06,,,0.52,weatherlink.com 1.10,2013-04-15 17:48:00,
2013-04-15 14:03:00,37.7,34.0,29.92,SE,126,3.0,11.0,86,0.04,,,0.53,weatherlink.com 1.10,2013-04-15 18:03:00,
2013-04-15 14:18:00,38.1,35.0,29.92,East,82,0.0,7.0,87,0.01,,,0.53,weatherlink.com 1.10,2013-04-15 18:18:00,
2013-04-15 14:33:00,38.3,35.0,29.93,ENE,73,0.0,7.0,86,0.01,,,0.53,weatherlink.com 1.10,2013-04-15 18:33:00,
2013-04-15 14:48:00,38.7,35.0,29.93,East,100,3.0,10.0,87,0.01,,,0.53,weatherlink.com 1.10,2013-04-15 18:48:00,
2013-04-15 15:03:00,39.2,35.0,29.92,ESE,105,7.0,11.0,86,0.00,,,0.53,weatherlink.com 1.10,2013-04-15 19:03:00,
2013-04-15 15:18:00,39.7,36.0,29.91,East,88,5.0,11.0,87,0.00,,,0.53,weatherlink.com 1.10,2013-04-15 19:18:00,
2013-04-15 15:33:00,40.2,37.0,29.91,ESE,123,5.0,10.0,87,0.00,,,0.53,weatherlink.com 1.10,2013-04-15 19:33:00,
2013-04-15 16:03:00,40.5,37.0,29.91,ESE,117,4.0,9.0,86,0.00,,,0.53,weatherlink.com 1.10,2013-04-15 20:03:00,
2013-04-15 16:18:00,40.7,37.0,29.92,ESE,103,7.0,9.0,87,0.00,,,0.53,weatherlink.com 1.10,2013-04-15 20:18:00,
2013-04-15 16:33:00,41.0,37.0,29.91,SE,126,2.0,8.0,86,0.00,,,0.53,weatherlink.com 1.10,2013-04-15 20:33:00,
2013-04-15 16:48:00,41.1,37.0,29.91,East,86,1.0,7.0,86,0.00,,,0.53,weatherlink.com 1.10,2013-04-15 20:48:00,
2013-04-15 17:03:00,41.3,37.0,29.91,East,94,1.0,5.0,86,0.00,,,0.53,weatherlink.com 1.10,2013-04-15 21:03:00,
2013-04-15 17:18:00,41.5,38.0,29.91,East,84,3.0,5.0,87,0.00,,,0.53,weatherlink.com 1.10,2013-04-15 21:18:00,
2013-04-15 17:33:00,41.5,38.0,29.92,ESE,107,0.0,5.0,87,0.00,,,0.53,weatherlink.com 1.10,2013-04-15 21:33:00,
2013-04-15 17:48:00,41.3,37.0,29.91,ESE,113,1.0,7.0,86,0.00,,,0.53,weatherlink.com 1.10,2013-04-15 21:48:00,
2013-04-15 18:03:00,41.4,38.0,29.91,NNE,23,2.0,7.0,87,0.01,,,0.54,weatherlink.com 1.10,2013-04-15 22:03:00,
2013-04-15 18:18:00,41.5,38.0,29.91,SE,135,0.0,4.0,87,0.01,,,0.54,weatherlink.com 1.10,2013-04-15 22:18:00,
2013-04-15 18:33:00,41.4,38.0,29.90,SE,142,4.0,9.0,87,0.02,,,0.55,weatherlink.com 1.10,2013-04-15 22:33:00,
2013-04-15 18:48:00,41.3,38.0,29.90,ESE,103,4.0,6.0,87,0.02,,,0.55,weatherlink.com 1.10,2013-04-15 22:48:00,
2013-04-15 19:03:00,41.3,38.0,29.90,SE,137,0.0,5.0,87,0.01,,,0.55,weatherlink.com 1.10,2013-04-15 23:03:00,